www.pogodaiklimat.ru

Погода и климат >> Архив погоды >> Украина >> Волноваха


ПОГОДА в Волновахе

  • Прогноз погоды в Волновахе
  • Монитор погоды в Волновахе

АРХИВ ПОГОДЫ в Волновахе

Время (UTC), дата Ветер
(напр.,м/с)
 
Видим.   Явления Облачность Т
(С)
Тd
(С)
f
(%)
Тe
(С)
Тes
(С)
Комфортность P
(гПа)
Po
(гПа)
Тmin
(С)
Tmax
(С)
R
(мм)
R24
(мм)
S
(см)
15 18.06 С 2 20 км 1/1 600 м
[Cu hum]
+28.2 +13.7 41 +30 +33 жарко 1012.1 981.9
18 18.06 СВ 2 20 км ясно +25.0 +14.7 53 +28 +28 жарко 1012.6 982.1 +28.8
21 18.06 штиль 0 20 км ясно +20.9 +12.9 60 +23 +23 комфорт 1013.6 982.6
00 19.06 штиль 0 20 км ясно +20.0 +12.6 62 +22 +22 комфорт 1013.3 982.2
03 19.06 штиль 0 20 км ясно +20.0 +13.8 67 +22 +23 комфорт 1013.0 982.0
06 19.06 В 2 20 км 3/1 1000 м
[Cu hum Ac trans Cc]
+27.2 +15.1 48 +30 +38 душно 1012.6 982.3 +19.5
12 19.06 С 2 20 км 9/5 1000 м
[Cu med, cong Ac trans Cc]
+30.0 +16.5 44 +33 +37 душно 1011.2 981.2
18 19.06 штиль 0 20 км 3/0
[Ci fib]
+24.4 +16.5 61 +28 +28 душно 1011.9 981.3 +31.1
21 19.06 В 2 20 км ясно +22.6 +16.8 70 +27 +27 душно 1012.3 981.5
00 20.06 В 2 20 км ясно +20.7 +16.8 78 +25 +25 комфорт 1012.5 981.5
03 20.06 В 2 20 км ясно +20.7 +15.9 74 +25 +26 комфорт 1013.5 982.5
06 20.06 В 2 20 км ясно +25.9 +15.2 52 +29 +39 душно 1013.1 982.7 +19.8
09 20.06 В 4 20 км 3/3 600 м
[Cu med, cong]
+29.2 +11.0 32 +30 +38 жарко 1012.3 982.2
12 20.06 СВ 6 20 км 6/6 600 м
[Cu med, cong]
+29.9 +10.6 30 +30 +32 жарко 1012.0 982.0
15 20.06 В 4 20 км 1/1 600 м
[Cu hum]
+29.6 +9.7 29 +29 +31 жарко 1011.4 981.4
18 20.06 СВ 2 20 км ясно +24.7 +10.9 42 +26 +26 жарко 1012.6 982.0 +30.4
21 20.06 СВ 2 20 км ясно +22.6 +9.6 44 +24 +24 комфорт 1013.3 982.5
00 21.06 СВ 2 20 км ясно +20.7 +10.7 53 +23 +23 комфорт 1014.2 983.2
03 21.06 СВ 2 20 км 3/3 600 м
[Sc]
+20.7 +11.2 54 +23 +24 комфорт 1014.7 983.7
06 21.06 СВ 2 20 км 4/4 1000 м
[Sc]
+26.5 +12.2 41 +28 +34 жарко 1014.5 984.1 +19.6
09 21.06 СВ 4 20 км 1/1 1000 м
[Cu hum]
+31.4 +8.6 24 +30 +41 жарко 1013.4 983.5
12 21.06 СВ 4 20 км 3/3 1000 м
[Sc diur, vesp]
+32.0 +9.6 25 +31 +38 жарко 1013.4 983.5
15 21.06 СВ 2 20 км 1/0
[Ac trans]
+31.8 +7.0 21 +30 +33 жарко 1012.8 982.9
18 21.06 СВ 2 20 км 1/0
[Ac trans]
+26.7 +11.4 38 +28 +28 жарко 1013.7 983.3 +32.7
21 21.06 СВ 2 20 км ясно +23.1 +11.0 46 +25 +25 комфорт 1014.8 984.0
00 22.06 СВ 2 20 км ясно +20.5 +9.3 49 +23 +23 комфорт 1015.4 984.3
03 22.06 СВ 2 20 км 3/0
[Ac trans Ci fib]
+20.7 +10.0 50 +23 +24 комфорт 1015.8 984.7
06 22.06 В 2 20 км 8/0
[Cc]
+25.5 +12.2 44 +27 +36 жарко 1015.7 985.1 +20.5
09 22.06 В 2 20 км 9/0
[Cc]
+29.9 +12.1 33 +31 +46 жарко 1015.2 985.1
12 22.06 В 4 20 км 9/3 1000 м
[Cu hum Cc]
+32.2 +10.0 26 +32 +37 жарко 1014.4 984.5
15 22.06 В 2 20 км 9/1 600 м
[Cu hum Ac trans Ci sp]
+31.0 +9.0 26 +30 +32 жарко 1014.1 984.1
18 22.06 В 2 20 км 9/0
[Ac trans Ci ing]
+27.5 +10.2 34 +28 +28 жарко 1014.2 983.9 +32.6
21 22.06 В 2 20 км 10/0
[Ac und]
+26.4 +11.2 39 +28 +28 жарко 1014.4 984.0
00 23.06 С 2 20 км 10/0
[Ac und]
+25.0 +11.3 42 +26 +26 жарко 1014.0 983.4
06 23.06 штиль 0 20 км 9/0
[Ac lent]
+24.6 +12.7 47 +26 +30 жарко 1014.5 983.9 +23.4
12 23.06 В 2 20 км {ливн. осадки} 10/4 1000 м
[Cb cap Ac lent]
+27.2 +16.8 53 +31 +33 душно 1013.6 983.3
18 23.06 С 2 20 км 10/0
[Ac lent]
+27.0 +12.3 40 +28 +28 жарко 1012.4 982.1 +29.3 0.0
00 24.06 З 2 20 км {ливн. осадки} 10/5 600 м
[Sc Ac und]
+22.9 +14.5 59 +27 +27 душно 1012.3 981.6
06 24.06 СЗ 2 20 км {ливн. осадки} 8/0
[Ac trans Ci sp]
+26.4 +14.7 49 +29 +35 жарко 1012.7 982.3 +20.5 0.0
12 24.06 Ю 2 20 км 8/0
[Ac trans Cc]
+29.2 +14.2 40 +31 +39 жарко 1013.1 983.0
18 24.06 В 2 20 км в посл. час ливневой дождь {гроза} 9/9 1000 м
[Cb cap Ac trans Ci fib]
+24.7 +18.1 67 +29 +29 душно 1015.3 984.7 +29.4 0.7
06 25.06 С 2 20 км 9/0
[Ac trans Ci fib]
+25.4 +16.9 59 +29 +34 душно 1017.0 986.4 +20.9

 

Местоположение метеостанции Волноваха (Донецкая область, Украина): широта 47.62 долгота 37.35 высота над уровнем моря 267 м.

В архиве по умолчанию представлена погода в Волновахе за последнюю неделю. Архивные данные за месяц целиком и за предыдущие месяцы, начиная с января 2011 года, Вы можете получить, выбрав интересующий диапазон дат из раскрывающегося списка и нажав кнопку "Ввод!".


*Определитесь, кто Вы:
робот инопланетянин человек

Внимание! Время в таблицах - всемирное. Для получения местного времени необходимо прибавить поправку, которая равна 2 ч.

Смотрите также архив погоды в соседних городах и на ближайших метеорологических станциях:

Погода в Мариуполе (Донецкая область, Украина) (67 км)
Погода в Гуляйполе (Запорожская область, Украина) (83 км)
Погода в Кирилловке (Запорожская область, Украина) (83 км)
Погода в Чаплино (Днепропетровская область, Украина) (101 км)
Погода в Бердянске (Запорожская область, Украина) (106 км)
Погода в Должанке (Краснодарский край, Россия) (108 км)
Погода в Ейске (Краснодарский край, Россия) (115 км)
Погода в Матвеевом Кургане (Ростовская область, Россия) (115 км)
Погода в Артемовске (Донецкая область, Украина) (119 км)
Погода в Александрополе (Днепропетровская область, Украина) (124 км)

Пояснения к столбцам:

Ветер - указаны скорость ветра в м/с - средняя за 10 мин, порывы в срок и между сроками (в фигурных скобках) и направление, откуда дует ветер: С - северный, СВ - северо-восточный, В - восточный, ЮВ - юго-восточный, Ю - южный, ЮЗ - юго-западный, З - западный, СЗ - северо-западный.
Видимость - горизонтальная дальность видимости в метрах или километрах. При видимости от 1 до 10 км при отсутствии осадков обычно наблюдается дымка, при ухудшении видимости до 1 км и менее - туман. В сухую погоду видимость может ухудшаться дымом, пылью или мглою.
Явления - указаны атмосферные явления, наблюдавшиеся в срок или в последний час перед сроком; фигурными скобками обозначены явления, наблюдавшиеся между сроками (за 1-3 часа до срока); квадратными скобками обозначены град или гололедные отложения с указанием их диаметра в мм.
Облачность - указаны через наклонную черту общая и нижняя облачность в баллах и высота нижней границы облаков в метрах; квадратными скобками обозначены формы облаков: Ci - перистые, Cs - перисто-слоистые, Cc - перисто-кучевые, Ac - высококучевые, As - высокослоистые, Sc - слоисто-кучевые, Ns - слоисто-дождевые, Cu - кучевые, Cb - кучево-дождевые. Подробнее классификацию облаков см. в Атласе облаков (PDF).
T - Температура воздуха - температура, измеренная на высоте 2 м над землей.
Td - Температура точки росы - температура, при понижении до которой содержащийся в воздухе водяной пар достигнет насыщения.
f - Относительная влажность воздуха - влажноcть воздуха, измеренная на высоте 2 м над землей.
Te - Эффективная температура - температура, которую ощущает одетый по сезону человек в тени. Характеристика душности погоды. При расчете учитывается влияние влажности воздуха и скорости ветра на теплоощущения человека.
Tes - Эффективная температура на солнце - температура, которую ощущает человек, с поправкой на солнечный нагрев. Характеристика знойности погоды. Зависит от высоты солнца над горизонтом, облачности и скорости ветра. Ночью, в пасмурную погоду, а также при ветре 12 м/с и более поправка равна нулю.
P - Атмосферное давление - приведенное к уровню моря атмосферное давление.
Po - Атмосферное давление - измеренное на уровне метеостанции атмосферное давление.
Tmin - Минимальная температура - минимум температуры воздуха на высоте 2 м над землей.
Tmax - Максимальная температура - максимум температуры воздуха на высоте 2 м над землей.
R - Количество осадков - Количество выпавших осадков за период времени, мм. При наведении курсора мыши на число - период времени, за который выпало указанное количество осадков.
R24 - Количество осадков - Количество выпавших осадков за 24 часа, мм.
S - Снежный покров - Высота снежного покрова, см. При наведении курсора мыши на число - состояние снежного покрова и степень покрытия местности в баллах.